Location: St. Louis
(38.6270°N, 90.1994°W)
Time: 01:14:53
(UTC-06:00)

Vanguard 2 - Pass Details

Date: 01 December 2021
Orbit: 553 x 2936 km, 32.9° (Epoch: 16 January)

Event Time Altitude Azimuth Distance (km) Brightness Sun altitude
Rises 17:25:02 0° 270° (W) 3,834 12.6 -8.9°
Reaches altitude 10° 17:27:21 10° 265° (W) 3,119 12.1 -9.3°
Maximum altitude 17:35:05 52° 191° (SSW) 1,990 9.8 -10.7°
Drops below altitude 10° 17:47:50 10° 121° (ESE) 5,004 11.3 -13.1°
Sets 17:52:37 0° 117° (ESE) 6,313 11.8 -14.0°
